Kezdőlap
METAR-TAF:

METAR-TAF

Repülőterek :

Kariba, Zimbabwe

földrajzi szélesség: 16-31S, földrajzi hosszúság: 028-53E, magasság: 518 m

Jelenlegi meteorológiai megfigyelések

A jelentés 51 perccel ezelõtt készült, 06:00 UTC
Szélcsend
Hőmérséklet 19°C
Páratartalom 52%
Légköri nyomás 1025 hPa
Látótávolság 10 km, vagy több
felhőtlen 1500 m magasságban, és nincs gomolyfelhõ

METAR: FVKB 280600Z 00000KT CAVOK 19/09 Q1025 NOSIG

Idő: 08:51 (06:51 UTC)


TAF: hiányzik

Meteorológiai megfigyelések és előrejelzések több, mint 4000 repülőtéren (METAR és TAF jelentéseket).

A térképen piros és sárga pontok jelzik az elérhető meteorológiai állomásokat.

Mozgassa az egeret a pont fölött, hogy megjelenjen az állomás neve.

Azután kattintson az időjárási megfigyelések és előrejelzések megtekintéséhez.

A térkép megváltoztatása: kattintson a fekete keresztel jelölt zöld gombra ráközelítéshez, a vonallal jelölt zöld gombra távolításhoz, vagy a zöld nyilakra a szomszédos térképek eléréséhez.


METAR-TAF: